Regional Weather Roundup
Issued by NWS

Home | Current Version | Previous Version | Text Only | Print | Product List | Glossary On
Versions: 1 2 3 4 5 6 7 8 9 10 11 12 13 14 15 16 17 18 19 20 21 22 23 24 25 26 27 28 29 30 31 32 33 34 35 36 37 38 39 40 41 42 43 44 45 46 47 48 49 50
000
ASUS44 KLIX 282013
RWRLA
LOUISIANA WEATHER ROUNDUP
NATIONAL WEATHER SERVICE NEW ORLEANS LA
300 PM CDT TUE MAR 28 2017

NOTE: "FAIR" INDICATES FEW OR NO CLOUDS BELOW 12,000 FEET WITH NO
      SIGNIFICANT WEATHER AND/OR OBSTRUCTIONS TO VISIBILITY.
      SKY/WX - SKY CONDITION AND SIGNIFICANT WEATHER.
      TMP - AIR TEMPERATURE.    DP   - DEWPOINT TEMPERATURE.
      RH  - RELATIVE HUMIDITY.  PRES - PRESSURE.
      HX  - HEAT INDEX.         WCI  - WIND CHILL INDEX.

*  THESE STATIONS ARE NOT NWS OR FAA STATIONS AND ARE NOT UNDER
   NWS QUALITY CONTROL.

LAZ040-048-061>063-065-066-069-282100-
SOUTHEAST LOUISIANA

CITY           SKY/WX    TMP DP  RH WIND       PRES   REMARKS
N.O. INTL ARPT MOSUNNY   82  65  56 S12       29.96F
N.O. LAKEFRONT PTSUNNY   84  65  52 S14       29.96F
N.O. DOWNTOWN* NOT AVBL
RESERVE*       FAIR      86  64  47 S12       29.95F
SLIDELL        MOSUNNY   83  65  54 S13       29.96F
BATON ROUGE    MOSUNNY   85  63  47 S12G17    29.93F
BOOTHVILLE     MOSUNNY   78  69  73 S13       29.99F
BELLE CHASSE   MOSUNNY   82  69  64 S13       29.97F
BOGALUSA*      NOT AVBL
GALLIANO*      MOCLDY    81  65  58 S9        29.97F
NEW ROADS*       N/A     83  64  53 S10       29.93F
GONZALES*      FAIR      82  63  51 S6        29.93F
HAMMOND*       PTSUNNY   86  61  42 SE9       29.95F
HOUMA*         MOSUNNY   81  70  69 SE12      29.97F
PORT FOURCHON* MOCLDY    77  70  78 SE13      29.98F

$$

LAZ041-044-053-054-282100-
SOUTHWEST LOUISIANA

CITY           SKY/WX    TMP DP  RH WIND       PRES   REMARKS
LAKE CHARLES   MOSUNNY   82  67  60 SE18      29.91F
LAFAYETTE      SUNNY     84  66  54 S13       29.94F
PATTERSON      PTSUNNY   82  68  62 S12G17    29.96F
SALT POINT       N/A     79  69  71 VRB6      29.95F
NEW IBERIA     MOSUNNY   82  66  58 S15       29.95F
CHENAULT AIRPK MOSUNNY   82  64  54 S15       29.91F

$$

LAZ027-028-282100-
CENTRAL LOUISIANA

CITY           SKY/WX    TMP DP  RH WIND       PRES   REMARKS
FORT POLK      MOSUNNY   83  58  42 SE16      29.88F
ALEXANDRIA INT MOSUNNY   83  65  54 S10       29.88F
ALEXANDRIA     MOSUNNY   86  65  49 SW12G18   29.90F

$$

LAZ001-002-282100-
NORTHWEST LOUISIANA

CITY           SKY/WX    TMP DP  RH WIND       PRES   REMARKS
SHREVEPORT     PTSUNNY   82  66  58 SE9       29.86F
BARKSDALE AFB  MOSUNNY   81  65  58 S14       29.87F
DTN SHREVEPORT CLOUDY    80  64  58 S8        29.87F

$$

LAZ014-016-282100-
NORTHEAST LOUISIANA

CITY           SKY/WX    TMP DP  RH WIND       PRES   REMARKS
MONROE         PTSUNNY   81  64  56 VRB6      29.92F
TALLULAH       MOSUNNY   83  62  49 S10       29.93F

$$




USA.gov is the U.S. government's official web portal to all federal, state and local government web resources and services.